Probability
0 55 68 58 32 13 10 3 3 0 0 0 0 0 0 0 0 0 0 0 0 0 0 0 0 0 0 0 0 0 0 0 0 0 0 0 0 0 0 0 0 0 0
13 68 74 61 23 19 13 3 0 0 0 0 0 0 0 0 0 0 0 0 0 0 0 0 0 0 0 0 0 0 0 0 0 0 0 0 0 0 0 0 0 0 0
35 68 61 71 26 23 6 0 0 0 0 0 0 0 0 0 0 0 0 0 0 0 0 0 0 0 0 0 0 0 0 0 0 0 0 0 0 0 0 0 0 0 0
39 68 52 52 29 19 0 0 0 0 0 0 0 0 0 0 0 0 0 0 0 0 0 0 0 0 0 0 0 0 0 0 0 0 0 0 0 0 0 0 0 0 0
58 65 55 68 32 13 0 0 0 0 0 0 0 0 0 0 0 0 0 0 0 0 0 0 0 0 0 0 0 0 0 0 0 0 0 0 0 0 0 0 0 0 0
58 58 71 81 35 16 0 0 0 0 0 0 0 0 0 0 0 0 0 0 0 0 0 0 0 0 0 0 0 0 0 0 0 0 0 0 0 0 0 0 0 0 0
58 58 68 74 45 16 3 0 0 0 0 0 0 0 0 0 0 0 0 0 0 0 0 0 0 0 0 0 0 0 0 0 0 0 0 0 0 0 0 0 0 0 0
65 58 65 74 58 42 6 0 0 0 0 0 0 0 0 0 0 0 0 0 0 0 0 0 0 0 0 0 0 0 0 0 0 0 0 0 0 0 0 0 0 0 0
55 58 68 58 48 48 16 6 3 0 0 0 0 0 0 0 0 0 0 0 0 0 0 0 0 0 0 0 0 0 0 0 0 0 0 0 0 0 0 0 0 0 0
68 65 65 71 55 45 19 10 6 0 0 0 0 0 0 0 0 0 0 0 0 0 0 0 0 0 0 0 0 0 0 0 0 0 0 0 0 0 0 0 0 0 0
71 74 68 71 65 55 29 6 3 0 0 0 0 0 0 0 0 0 0 0 0 0 0 0 0 0 0 0 0 0 0 0 0 0 0 0 0 0 0 0 0 0 0
74 77 77 77 74 61 32 29 16 3 0 0 0 0 0 0 0 0 0 0 0 0 0 0 0 0 0 0 0 0 0 0 0 0 0 0 0 0 0 0 0 0 0
71 87 81 84 77 77 61 45 35 13 6 0 0 0 0 0 0 0 0 0 0 0 0 0 0 0 0 0 0 0 0 0 0 0 0 0 0 0 0 0 0 0 0
45 84 94 87 84 84 65 55 45 23 6 0 0 0 0 0 0 0 0 0 0 0 0 0 0 0 0 0 0 0 0 0 0 0 0 0 0 0 0 0 0 0 0
32 65 90 90 84 84 87 71 45 39 19 3 0 0 0 0 0 0 0 0 0 0 0 0 0 0 0 0 0 0 0 0 0 0 0 0 0 0 0 0 0 0 0
23 48 68 90 94 87 87 74 52 42 29 6 0 0 0 0 0 0 0 0 0 0 0 0 0 0 0 0 0 0 0 0 0 0 0 0 0 0 0 0 0 0 0
10 23 55 71 90 84 87 77 61 52 23 13 3 0 0 0 0 0 0 0 0 0 0 0 0 0 0 0 0 0 0 0 0 0 0 0 0 0 0 0 0 0 0
3 10 29 55 68 77 81 77 52 35 16 13 3 0 0 0 0 0 0 0 0 0 0 0 0 0 0 0 0 0 0 0 0 0 0 0 0 0 0 0 0 0 0
0 6 10 29 52 68 68 61 39 29 29 10 6 0 0 0 0 0 0 0 0 0 0 0 0 0 0 0 0 0 0 0 0 0 0 0 0 0 0 0 0 0 0
0 0 3 19 29 39 35 29 23 10 6 3 3 0 0 0 0 0 0 0 0 0 0 0 0 0 0 0 0 0 0 0 0 0 0 0 0 0 0 0 0 0 0
0 0 0 6 23 23 13 16 10 3 0 0 0 0 0 0 0 0 0 0 0 0 0 0 0 0 0 0 0 0 0 0 0 0 0 0 0 0 0 0 0 0 0
0 0 0 3 13 10 10 10 3 0 0 0 0 0 0 0 0 0 0 0 0 0 0 0 0 0 0 0 0 0 0 0 0 0 0 0 0 0 0 0 0 0 0
0 0 0 3 10 3 6 0 0 0 0 0 0 0 0 0 0 0 0 0 0 0 0 0 0 0 0 0 0 0 0 0 0 0 0 0 0 0 0 0 0 0 0
0 0 0 0 0 0 0 0 0 0 0 0 0 0 0 0 0 0 0 0 0 0 0 0 0 0 0 0 0 0 0 0 0 0 0 0 0 0 0 0 0 0 0
0 0 0 0 0 0 0 0 0 0 0 0 0 0 0 0 0 0 0 0 0 0 0 0 0 0 0 0 0 0 0 0 0 0 0 0 0 0 0 0 0 0 0
0 0 0 0 0 0 0 0 0 0 0 0 0 0 0 0 0 0 0 0 0 0 0 0 0 0 0 0 0 0 0 0 0 0 0 0 0 0 0 0 0 0 0
Height
5855 5855 5856 5857 5857 5858 5859 5859 5859 5859 5859 5858 5858 5857 5857 5856 5856 5855 5855 5855 5855 5855 5855 5855 5854 5854 5854 5854 5854 5854 5853 5853 5853 5853 5852 5852 5852 5852 5851 5851 5850 5850 5849
5852 5852 5852 5853 5854 5854 5855 5856 5856 5856 5856 5856 5855 5855 5854 5854 5853 5853 5853 5852 5852 5852 5852 5852 5851 5851 5851 5851 5851 5850 5850 5850 5849 5849 5849 5849 5848 5848 5847 5847 5846 5845 5845
5848 5848 5849 5849 5850 5851 5851 5852 5852 5853 5853 5852 5852 5852 5852 5851 5851 5850 5850 5850 5849 5849 5849 5849 5848 5848 5848 5848 5847 5847 5847 5846 5846 5845 5845 5845 5844 5844 5843 5842 5842 5841 5841
5844 5845 5845 5846 5846 5847 5848 5848 5848 5849 5849 5849 5849 5849 5849 5848 5848 5848 5847 5847 5847 5846 5846 5846 5845 5845 5845 5845 5844 5844 5843 5843 5842 5841 5841 5840 5840 5839 5839 5838 5837 5837 5836
5841 5841 5842 5842 5843 5843 5844 5844 5845 5845 5845 5846 5846 5846 5845 5845 5845 5845 5845 5844 5844 5843 5843 5843 5843 5842 5842 5841 5841 5840 5840 5839 5838 5837 5837 5836 5835 5835 5834 5833 5833 5832 5831
5837 5837 5838 5838 5839 5839 5840 5840 5841 5841 5842 5842 5842 5842 5842 5842 5842 5842 5841 5841 5841 5840 5840 5840 5839 5839 5838 5838 5837 5836 5836 5835 5834 5833 5832 5831 5830 5830 5829 5828 5828 5827 5826
5833 5833 5834 5834 5835 5835 5836 5836 5837 5837 5838 5838 5838 5838 5838 5838 5838 5838 5838 5837 5837 5837 5836 5836 5836 5835 5835 5834 5833 5832 5832 5831 5830 5829 5827 5826 5825 5824 5824 5823 5822 5821 5821
5829 5829 5830 5830 5830 5831 5832 5832 5833 5833 5833 5834 5834 5834 5835 5834 5834 5834 5834 5834 5834 5833 5833 5832 5832 5831 5831 5830 5829 5828 5827 5826 5824 5823 5822 5821 5820 5819 5818 5817 5816 5815 5814
5825 5825 5825 5826 5826 5827 5827 5828 5829 5829 5829 5830 5830 5831 5831 5831 5831 5830 5830 5830 5830 5830 5829 5829 5828 5827 5826 5825 5824 5823 5821 5820 5819 5818 5816 5815 5814 5813 5812 5811 5810 5809 5808
5820 5821 5821 5821 5822 5822 5823 5824 5824 5825 5825 5826 5826 5826 5827 5827 5827 5827 5826 5826 5826 5826 5825 5824 5824 5823 5822 5820 5819 5817 5816 5814 5813 5812 5810 5809 5808 5807 5806 5805 5803 5802 5801
5815 5816 5816 5817 5817 5818 5819 5819 5820 5820 5821 5821 5821 5822 5822 5822 5822 5822 5822 5822 5822 5821 5821 5820 5819 5818 5817 5815 5813 5812 5810 5808 5807 5805 5804 5803 5802 5801 5799 5798 5796 5795 5794
5810 5811 5811 5812 5812 5813 5814 5815 5815 5816 5816 5816 5817 5817 5817 5817 5818 5818 5818 5818 5817 5817 5816 5815 5814 5813 5811 5810 5808 5806 5804 5802 5800 5799 5798 5796 5795 5794 5793 5791 5789 5788 5786
5804 5805 5806 5807 5807 5808 5809 5810 5811 5811 5811 5812 5812 5812 5812 5812 5813 5813 5813 5813 5812 5812 5811 5810 5809 5807 5806 5804 5802 5800 5798 5796 5794 5793 5791 5789 5788 5787 5785 5784 5782 5780 5778
5798 5800 5801 5802 5802 5803 5804 5805 5806 5806 5807 5807 5807 5807 5807 5807 5807 5808 5808 5807 5807 5806 5806 5804 5803 5802 5800 5798 5796 5794 5792 5790 5788 5786 5785 5782 5781 5779 5777 5776 5773 5771 5769
5792 5793 5795 5796 5797 5798 5799 5800 5801 5801 5802 5802 5802 5801 5801 5802 5802 5802 5802 5802 5801 5801 5800 5799 5797 5796 5794 5792 5790 5788 5786 5783 5781 5779 5777 5775 5773 5771 5769 5767 5765 5762 5760
5785 5786 5788 5789 5791 5792 5793 5795 5795 5796 5797 5797 5796 5796 5796 5796 5796 5796 5796 5796 5795 5795 5794 5793 5791 5790 5788 5786 5784 5781 5779 5777 5775 5772 5770 5767 5765 5763 5760 5758 5755 5753 5751
5778 5779 5781 5782 5784 5786 5787 5788 5789 5790 5791 5791 5791 5791 5790 5790 5790 5790 5790 5790 5789 5788 5787 5786 5785 5783 5781 5779 5777 5775 5772 5770 5767 5764 5762 5759 5756 5754 5751 5748 5746 5743 5741
5770 5772 5773 5775 5777 5779 5780 5781 5783 5784 5785 5785 5785 5784 5784 5784 5784 5784 5784 5783 5782 5782 5781 5779 5778 5776 5774 5772 5770 5767 5765 5762 5759 5756 5753 5750 5747 5744 5741 5738 5736 5733 5730
5762 5764 5766 5768 5770 5771 5773 5775 5776 5777 5778 5778 5778 5778 5778 5777 5777 5777 5777 5776 5776 5775 5774 5773 5771 5769 5767 5764 5762 5759 5756 5753 5751 5747 5744 5741 5737 5734 5731 5728 5725 5722 5719
5754 5756 5758 5760 5762 5764 5765 5767 5769 5770 5771 5771 5771 5771 5771 5771 5770 5770 5770 5769 5769 5768 5767 5765 5764 5761 5759 5756 5753 5751 5747 5744 5741 5738 5734 5730 5727 5723 5719 5716 5713 5709 5706
5745 5748 5750 5752 5754 5756 5758 5760 5761 5762 5763 5764 5764 5764 5764 5764 5763 5763 5763 5762 5762 5761 5760 5758 5756 5754 5751 5748 5745 5742 5739 5735 5731 5727 5723 5720 5716 5711 5707 5703 5699 5695 5692
5736 5739 5742 5744 5746 5748 5751 5752 5754 5755 5756 5757 5757 5757 5757 5757 5756 5756 5756 5755 5754 5753 5752 5750 5748 5746 5743 5740 5736 5733 5729 5726 5722 5717 5712 5708 5703 5699 5694 5689 5684 5680 5676
5726 5730 5733 5736 5738 5741 5743 5745 5747 5747 5748 5749 5750 5750 5750 5750 5749 5749 5748 5747 5746 5745 5743 5741 5739 5737 5734 5731 5727 5724 5720 5716 5712 5708 5702 5696 5691 5685 5680 5675 5669 5664 5659
5715 5719 5723 5726 5729 5732 5735 5737 5739 5740 5741 5742 5742 5743 5743 5742 5742 5741 5741 5739 5738 5737 5735 5733 5730 5727 5724 5721 5717 5713 5709 5704 5701 5698 5694 5687 5680 5674 5668 5661 5654 5648 5642
5703 5708 5712 5716 5720 5723 5726 5728 5731 5733 5734 5735 5735 5735 5735 5735 5735 5734 5733 5732 5730 5728 5726 5724 5721 5717 5714 5710 5706 5702 5698 5693 5688 5684 5681 5675 5669 5662 5655 5648 5640 5632 5625
5690 5696 5701 5706 5710 5714 5718 5720 5723 5725 5726 5727 5727 5728 5728 5728 5727 5726 5725 5723 5722 5719 5717 5714 5711 5707 5704 5700 5695 5690 5686 5681 5675 5670 5665 5660 5655 5648 5641 5633 5624 5616 5608
Wind_Speed
17 18 19 19 19 18 17 16 15 14 13 12 12 11 11 11 11 11 11 12 12 13 13 14 15 16 17 18 19 19 20 21 21 21 22 22 22 22 22 22 22 22 22
17 18 18 19 19 19 18 17 16 15 14 13 12 12 11 11 11 12 12 13 13 14 14 15 16 17 17 18 19 19 20 21 21 22 22 22 23 23 24 24 24 24 24
18 19 19 20 20 20 19 18 17 16 15 14 14 13 12 12 12 13 13 14 14 15 15 16 17 18 19 19 20 20 20 21 21 22 22 23 23 24 24 25 26 26 26
19 19 19 20 20 20 20 19 18 17 16 16 15 14 14 13 13 14 14 14 15 16 16 17 18 19 20 20 21 21 21 21 22 22 23 24 24 25 26 26 27 27 27
20 20 20 20 20 20 20 19 18 18 17 17 16 16 15 15 15 15 15 15 16 16 17 17 18 19 20 21 21 22 22 23 23 24 25 26 26 27 27 27 27 27 27
21 21 21 21 21 21 21 20 19 19 19 18 17 17 16 16 16 16 16 16 16 16 17 17 18 19 20 20 21 22 22 23 24 25 26 27 27 28 28 27 27 27 27
22 23 23 23 23 23 22 21 20 20 20 19 19 18 18 17 17 16 16 17 17 17 17 17 18 19 19 20 21 21 22 22 24 24 25 26 27 28 28 28 28 29 29
22 23 24 25 25 24 23 22 21 21 21 21 20 19 19 18 18 17 17 17 17 17 18 18 18 19 20 20 21 22 22 23 24 25 26 26 27 28 28 29 29 30 30
22 23 24 25 25 24 23 23 22 22 22 22 21 21 20 20 19 18 18 17 17 17 17 18 18 19 19 20 21 22 23 23 24 25 25 26 27 27 28 28 29 30 31
24 24 24 25 25 25 24 23 23 22 22 22 22 22 22 21 20 19 19 18 18 18 18 18 18 19 20 20 21 22 23 24 24 25 26 27 27 28 28 29 30 31 32
26 26 26 26 26 26 25 24 23 22 22 22 23 23 23 22 21 20 20 19 19 18 18 19 19 20 21 21 22 23 24 25 26 26 27 28 29 29 30 31 32 33 34
29 28 27 27 28 27 26 25 23 22 22 22 23 24 24 24 23 22 21 20 20 20 20 20 21 21 22 23 23 24 25 26 26 27 27 29 29 30 31 32 34 34 35
32 30 29 29 29 29 28 27 25 23 23 22 23 25 25 25 25 24 22 22 21 21 21 22 23 24 24 25 25 26 26 27 28 28 28 29 30 31 32 34 35 36 37
33 32 31 31 31 31 31 29 27 25 24 23 24 25 26 26 26 25 25 24 23 23 23 24 25 26 26 27 27 27 28 28 29 29 30 31 33 34 35 36 38 39 40
35 34 34 33 33 34 33 32 30 28 26 25 25 26 26 27 27 27 27 26 26 25 25 26 27 28 28 28 29 29 29 30 31 31 32 34 35 36 38 39 40 41 42
36 36 35 35 35 35 34 33 32 30 28 27 27 28 28 28 28 28 28 28 28 28 28 28 29 29 30 30 30 30 31 32 33 34 36 37 38 40 41 42 43 44 44
38 37 37 36 36 35 35 34 34 32 31 30 30 29 30 30 29 29 29 30 30 30 30 30 31 31 32 32 32 33 33 34 36 37 39 40 42 43 44 45 45 46 46
39 39 38 38 37 36 36 35 34 34 33 32 32 31 31 32 31 30 31 31 31 31 31 32 33 33 34 34 34 35 36 37 38 39 41 43 44 45 46 46 47 48 48
40 41 40 39 38 38 37 36 35 34 34 34 34 33 33 33 33 32 32 32 32 32 32 33 34 34 35 36 37 38 38 39 40 42 44 45 46 47 48 49 49 50 51
42 42 42 41 40 39 38 37 36 35 35 35 35 35 34 34 34 34 33 33 33 33 34 35 35 36 37 39 40 40 41 42 43 45 46 48 49 50 51 52 52 53 54
43 43 43 43 42 41 39 38 37 36 36 36 36 35 35 35 34 34 34 34 34 35 35 36 37 38 39 41 42 43 44 45 46 47 49 50 51 52 54 55 56 57 58
44 44 44 44 43 42 41 39 38 37 36 36 36 36 35 35 35 35 35 35 36 36 37 37 38 39 41 42 43 45 47 47 48 49 51 53 54 55 57 58 59 60 62
45 45 45 44 44 43 42 41 39 38 37 36 36 36 37 36 36 36 36 37 37 38 38 39 40 41 43 43 45 46 48 49 49 50 53 55 56 58 59 61 62 64 66
46 45 45 45 44 43 42 41 40 39 37 36 36 36 37 37 37 37 37 38 38 39 39 41 42 43 44 45 47 48 50 51 52 52 53 55 57 59 61 63 65 67 69
48 47 46 45 44 43 42 41 40 38 37 37 37 37 37 37 37 38 38 38 39 40 41 42 43 45 46 47 49 50 52 54 56 57 56 56 58 60 62 64 66 68 69
52 50 48 47 45 43 42 41 39 38 38 37 37 37 37 37 37 38 38 39 40 41 42 43 44 46 48 49 51 53 54 56 58 60 60 61 61 62 64 65 67 68 70
Wind_Direction
253 253 253 253 253 254 254 254 255 258 261 262 262 259 257 254 253 254 256 258 262 265 267 270 271 272 273 274 275 276 276 276 276 276 276 277 278 280 281 282 282 283 282
251 252 252 252 253 253 252 252 254 258 262 263 262 260 256 255 255 255 255 257 261 264 268 270 271 272 273 275 276 277 278 278 277 276 276 277 278 280 282 283 283 283 283
248 250 251 252 252 252 252 253 255 259 262 264 264 261 257 256 255 255 255 256 259 262 265 267 270 272 273 274 276 277 278 279 278 278 277 277 278 280 282 284 285 285 284
248 249 251 252 252 252 252 253 255 259 261 264 264 262 259 256 255 254 255 255 258 261 264 266 268 270 272 274 275 276 277 278 279 279 278 278 279 281 282 284 285 285 284
252 253 254 254 254 253 252 253 255 258 261 262 263 262 261 258 256 255 256 256 258 261 264 266 268 270 272 274 275 276 277 278 278 279 279 280 281 282 283 284 285 285 284
256 259 260 259 257 255 253 253 255 258 260 262 263 262 261 259 258 257 257 258 259 262 264 266 269 271 274 275 276 277 278 279 280 281 281 282 283 284 284 284 284 284 283
259 262 263 263 261 259 255 254 256 258 260 261 261 260 259 259 260 260 260 261 263 264 266 269 271 274 276 278 279 280 281 283 283 284 284 284 284 284 284 285 285 284 283
259 262 264 264 263 261 258 257 257 257 258 259 260 259 258 259 260 261 262 263 265 267 269 271 273 275 278 279 281 282 283 283 284 284 284 284 285 285 285 285 285 284 283
257 261 263 264 263 261 259 258 258 258 257 258 259 259 258 258 259 261 262 263 265 268 270 273 275 277 280 281 282 282 283 284 284 284 284 285 285 286 286 286 285 285 284
254 257 259 260 260 259 258 258 259 259 258 258 258 258 258 257 257 259 260 263 265 268 270 274 277 279 282 284 284 285 285 285 285 285 285 285 285 285 286 286 286 285 285
251 253 255 256 255 255 256 256 257 259 259 259 259 259 258 257 256 257 260 263 266 268 270 275 278 281 283 285 287 288 288 287 286 285 285 285 285 285 285 285 285 285 285
249 250 252 253 252 253 253 254 255 258 260 261 261 260 259 258 257 257 260 263 265 267 271 276 279 283 285 287 289 291 291 290 288 287 287 287 287 287 287 286 286 285 285
248 249 250 250 250 250 251 252 254 256 260 263 263 261 260 259 257 257 259 261 264 267 272 277 281 284 286 287 289 290 291 291 289 288 288 288 288 288 288 288 288 287 286
249 250 249 249 249 249 250 251 253 255 259 263 264 263 262 260 259 258 258 261 264 267 272 278 281 284 287 288 289 290 290 290 290 289 289 289 289 289 289 289 289 289 289
250 251 250 249 250 250 250 251 253 255 258 262 263 263 262 261 260 259 259 261 263 267 272 277 281 284 286 288 289 290 290 290 290 290 290 291 291 292 292 291 291 291 290
248 249 250 251 251 252 253 253 254 255 257 261 263 263 261 261 260 260 260 262 264 268 271 275 279 283 285 287 289 290 290 291 291 292 292 292 292 293 293 292 292 291 290
246 247 249 250 252 253 254 254 255 255 256 259 262 263 262 260 260 260 261 262 265 268 271 275 278 282 285 287 289 291 291 291 292 292 293 293 293 292 292 292 291 290 289
245 246 248 249 251 252 253 254 255 256 257 259 261 262 261 260 260 260 261 263 265 268 272 275 279 282 285 287 289 291 291 292 292 292 293 293 293 292 292 291 290 289 287
243 244 246 248 249 251 253 254 255 256 257 258 260 260 260 260 260 260 262 263 266 269 272 276 279 282 285 287 289 291 292 292 293 293 293 293 293 292 292 291 289 288 287
242 242 244 246 248 250 252 254 255 256 257 257 258 258 259 260 261 261 263 264 266 269 273 276 280 283 285 288 290 291 292 293 294 294 294 294 293 292 292 291 289 288 287
241 241 242 244 246 248 250 252 253 255 256 257 257 258 260 261 262 263 264 265 267 271 273 276 280 283 286 288 290 291 292 293 294 294 295 295 294 293 293 292 291 289 288
241 241 241 243 245 247 249 251 253 254 256 256 257 259 261 261 263 264 264 267 270 273 276 278 281 284 286 288 290 292 293 294 295 296 296 296 295 295 294 293 292 291 290
240 240 241 242 243 246 248 250 252 254 255 256 257 259 260 262 263 264 266 269 272 275 278 280 283 285 288 289 291 292 293 294 294 295 296 296 296 296 295 295 294 293 292
239 238 239 240 241 244 247 249 251 253 255 256 257 258 261 262 264 266 268 270 273 276 279 282 285 287 289 290 292 293 294 295 295 295 295 295 295 295 295 294 294 293 293
237 236 236 238 239 242 245 248 251 254 256 257 257 259 261 263 264 267 269 272 275 278 281 284 286 288 290 292 293 295 295 296 296 296 296 295 295 295 295 294 294 293 292
236 234 234 235 237 240 243 247 250 253 255 256 258 259 261 263 265 267 270 273 276 280 283 285 287 289 291 293 295 296 297 297 297 297 297 297 297 296 296 295 294 293 292